Midland, MI

5:17 AM EDT on August 21, 2017 (GMT -0400)
Barstow

Weather History for KIKW - September, 2013

Change the Weather History Date:

Saturday, September 28, 2013

  Actual Average (KMBS) Record (KMBS)
Temperature  
Mean Temperature 63 °F -  
Max Temperature 79 °F 65 °F 80 °F (2013)
Min Temperature 47 °F 42 °F 33 °F (2000)
Degree Days  
Heating Degree Days 2    
Growing Degree Days 13 (Base 50)    
Moisture  
Dew Point 54 °F    
Average Humidity 73    
Maximum Humidity 100    
Minimum Humidity 37    
Precipitation  
Precipitation 0.00 in - - ()
Sea Level Pressure  
Sea Level Pressure 30.11 in    
Wind  
Wind Speed 5 mph (SSE)    
Max Wind Speed 13 mph    
Max Gust Speed 20 mph    
Visibility 7 miles    
Events Fog    
Averages and records for this station are not official NWS values.
T = Trace of Precipitation, MM = Missing Value Source: NWS Daily Summary

Daily Weather History Graph

Daily Weather History Graph

Search for Another Location

Airport or City:

Trip Planner

Search our weather history database for the weather conditions in past years. The results will help you decide how hot, cold, wet, or windy it might be!

Date:

Astronomy

Sep. 28, 2013 Rise Set
Actual Time 7:31 AM EDT 7:23 PM EDT
Civil Twilight 7:02 AM EDT 7:51 PM EDT
Nautical Twilight 6:29 AM EDT 8:24 PM EDT
Astronomical Twilight 5:55 AM EDT 8:58 PM EDT
Moon 1:08 AM EDT (9/28) 3:50 PM EDT (9/28)
Length of Visible Light 12h 48m
Length of Day
11h 51m
Last Quarter, 36% of the Moon is Illuminated
Sep 28
Last Quarter
Oct 4
New
Oct 11
First Quarter
Oct 18
Full
Oct 26
Last Quarter

Hourly Weather History & Observations

Time (EDT) Temp. Dew Point Humidity Pressure Visibility Wind Dir Wind Speed Gust Speed Precip Events Conditions
12:14 AM 54.1 °F 52.9 °F 95% 30.19 in 10.0 mi Calm Calm - N/A   Clear
12:34 AM 54.1 °F 52.3 °F 94% 30.19 in 10.0 mi ESE 4.6 mph - N/A   Clear
12:53 AM 56.3 °F 53.6 °F 91% 30.19 in 10.0 mi ESE 3.5 mph - N/A   Clear
1:13 AM 54.5 °F 53.2 °F 96% 30.19 in 10.0 mi Calm Calm - N/A   Clear
1:34 AM 52.0 °F 51.3 °F 97% 30.19 in 10.0 mi Calm Calm - N/A   Clear
1:53 AM 50.7 °F 50.4 °F 99% 30.20 in 4.0 mi Calm Calm - N/A   Clear
2:13 AM 49.3 °F 49.1 °F 99% 30.20 in 0.2 mi Calm Calm - N/A Fog Fog
2:34 AM 48.9 °F 48.9 °F 100% 30.19 in 0.2 mi Calm Calm - N/A Fog Fog
2:53 AM 49.1 °F 49.1 °F 100% 30.19 in 1.0 mi Calm Calm - N/A   Mist
3:14 AM 48.7 °F 48.7 °F 100% 30.19 in 0.2 mi Calm Calm - N/A Fog Fog
3:34 AM 49.1 °F 49.1 °F 100% 30.18 in 0.2 mi Calm Calm - N/A Fog Fog
3:53 AM 48.2 °F 48.2 °F 100% 30.19 in 1.0 mi Calm Calm - N/A   Mostly Cloudy
4:14 AM 47.1 °F 47.1 °F 100% 30.19 in 0.8 mi East 3.5 mph - N/A   Mist
4:34 AM 47.1 °F 47.1 °F 100% 30.18 in 0.5 mi East 3.5 mph - N/A Fog Fog
4:53 AM 47.8 °F 47.8 °F 100% 30.19 in 0.8 mi East 3.5 mph - N/A   Mist
5:14 AM 50.5 °F 50.5 °F 100% 30.19 in 7.0 mi East 3.5 mph - N/A   Clear
5:33 AM 51.3 °F 51.3 °F 100% 30.18 in 5.0 mi East 4.6 mph - N/A   Clear
5:54 AM 52.5 °F 52.5 °F 100% 30.18 in 7.0 mi East 4.6 mph - N/A   Clear
6:14 AM 51.4 °F 51.4 °F 100% 30.18 in 5.0 mi East 3.5 mph - N/A   Clear
6:33 AM 51.4 °F 51.4 °F 100% 30.18 in 4.0 mi Calm Calm - N/A   Scattered Clouds
6:54 AM 52.7 °F 52.7 °F 100% 30.19 in 4.0 mi Calm Calm - N/A   Mostly Cloudy
7:14 AM 55.2 °F 55.2 °F 100% 30.19 in 1.8 mi SSE 5.8 mph - N/A   Overcast
7:33 AM 55.6 °F 55.6 °F 100% 30.19 in 1.5 mi SE 5.8 mph - N/A   Overcast
7:54 AM 55.9 °F 55.9 °F 100% 30.19 in 0.5 mi SE 5.8 mph - N/A Fog Fog
8:14 AM 56.5 °F 56.5 °F 100% 30.19 in 0.8 mi SE 4.6 mph - N/A   Overcast
8:33 AM 57.2 °F 57.2 °F 100% 30.19 in 2.0 mi SE 8.1 mph - N/A   Overcast
8:54 AM 57.9 °F 57.9 °F 100% 30.19 in 4.0 mi SE 8.1 mph - N/A   Overcast
9:14 AM 58.6 °F 58.6 °F 100% 30.19 in 5.0 mi SE 5.8 mph - N/A   Overcast
9:33 AM 59.4 °F 59.4 °F 100% 30.19 in 5.0 mi SSE 6.9 mph - N/A   Overcast
9:54 AM 60.6 °F 59.7 °F 97% 30.19 in 7.0 mi SE 5.8 mph - N/A   Overcast
10:14 AM 61.3 °F 59.5 °F 94% 30.19 in 10.0 mi SSE 8.1 mph - N/A   Overcast
10:33 AM 63.3 °F 59.7 °F 88% 30.19 in 10.0 mi South 8.1 mph - N/A   Overcast
10:54 AM 64.4 °F 59.5 °F 84% 30.19 in 10.0 mi South 5.8 mph - N/A   Scattered Clouds
11:14 AM 65.5 °F 59.0 °F 80% 30.17 in 10.0 mi South 6.9 mph - N/A   Clear
11:33 AM 66.9 °F 58.3 °F 74% 30.17 in 10.0 mi SSE 6.9 mph - N/A   Clear
11:54 AM 69.8 °F 57.7 °F 65% 30.16 in 10.0 mi South 8.1 mph - N/A   Clear
12:14 PM 70.9 °F 57.4 °F 62% 30.15 in 10.0 mi SSE 6.9 mph - N/A   Clear
12:34 PM 73.4 °F 56.5 °F 55% 30.14 in 10.0 mi South 10.4 mph 17.3 mph N/A   Clear
12:54 PM 74.7 °F 55.8 °F 52% 30.13 in 10.0 mi South 6.9 mph - N/A   Clear
1:13 PM 75.7 °F 55.4 °F 49% 30.12 in 10.0 mi South 8.1 mph - N/A   Clear
1:34 PM 77.0 °F 55.6 °F 47% 30.11 in 7.0 mi SE 9.2 mph - N/A   Clear
1:54 PM 77.0 °F 55.0 °F 47% 30.09 in 10.0 mi South 10.4 mph - N/A   Clear
2:13 PM 77.2 °F 54.5 °F 45% 30.08 in 10.0 mi South 11.5 mph - N/A   Clear
2:34 PM 78.1 °F 54.1 °F 43% 30.07 in 10.0 mi SE 11.5 mph 17.3 mph N/A   Clear
2:54 PM 78.1 °F 53.4 °F 42% 30.06 in 10.0 mi South 12.7 mph 18.4 mph N/A   Clear
3:13 PM 79.0 °F 52.5 °F 40% 30.05 in 10.0 mi SE 12.7 mph 19.6 mph N/A   Clear
3:34 PM 78.8 °F 52.3 °F 40% 30.04 in 7.0 mi SSE 9.2 mph - N/A   Clear
3:54 PM 79.0 °F 51.6 °F 38% 30.04 in 10.0 mi SSE 8.1 mph 18.4 mph N/A   Clear
4:13 PM 79.5 °F 51.1 °F 37% 30.03 in 10.0 mi South 10.4 mph 17.3 mph N/A   Clear
4:34 PM 79.0 °F 50.7 °F 37% 30.02 in 10.0 mi SSE 11.5 mph 17.3 mph N/A   Clear
4:54 PM 78.8 °F 50.2 °F 37% 30.02 in 10.0 mi South 10.4 mph - N/A   Clear
5:13 PM 78.8 °F 50.9 °F 38% 30.01 in 7.0 mi South 9.2 mph 16.1 mph N/A   Clear
5:34 PM 78.1 °F 51.3 °F 39% 30.01 in 10.0 mi SSE 9.2 mph 16.1 mph N/A   Clear
5:54 PM 77.4 °F 52.2 °F 41% 30.01 in 10.0 mi South 8.1 mph - N/A   Clear
6:14 PM 75.7 °F 52.7 °F 45% 30.01 in 10.0 mi SSE 6.9 mph - N/A   Clear
6:34 PM 74.7 °F 53.1 °F 47% 30.01 in 10.0 mi SSE 8.1 mph - N/A   Clear
6:54 PM 74.7 °F 53.1 °F 47% 30.01 in 10.0 mi SSE 6.9 mph - N/A   Clear
7:14 PM 73.4 °F 53.1 °F 49% 30.01 in 10.0 mi SSE 8.1 mph - N/A   Clear
7:34 PM 71.8 °F 53.1 °F 52% 30.01 in 10.0 mi SSE 5.8 mph - N/A   Clear
7:53 PM 71.1 °F 53.6 °F 54% 30.00 in 10.0 mi SE 5.8 mph - N/A   Clear
8:14 PM 70.5 °F 53.6 °F 55% 30.00 in 10.0 mi SE 6.9 mph - N/A   Clear
8:34 PM 69.8 °F 54.1 °F 57% 30.00 in 10.0 mi SSE 9.2 mph - N/A   Clear
8:53 PM 70.0 °F 54.3 °F 57% 30.00 in 10.0 mi SSE 10.4 mph - N/A   Clear
9:14 PM 69.3 °F 53.8 °F 58% 30.00 in 10.0 mi SSE 9.2 mph 18.4 mph N/A   Clear
9:34 PM 68.4 °F 54.0 °F 60% 29.99 in 10.0 mi SE 12.7 mph 17.3 mph N/A   Clear
9:54 PM 67.8 °F 54.0 °F 61% 29.99 in 10.0 mi SSE 10.4 mph 17.3 mph N/A   Clear
10:14 PM 67.1 °F 53.8 °F 62% 29.99 in 10.0 mi SSE 8.1 mph - N/A   Clear
10:34 PM 66.6 °F 53.8 °F 63% 29.99 in 10.0 mi SSE 6.9 mph - N/A   Clear
10:54 PM 66.6 °F 54.5 °F 65% 29.98 in 10.0 mi SSE 8.1 mph - N/A   Clear
11:14 PM 65.7 °F 54.0 °F 66% 29.98 in 10.0 mi SSE 8.1 mph - N/A   Clear
11:34 PM 65.1 °F 53.8 °F 67% 29.97 in 10.0 mi SSE 9.2 mph 17.3 mph N/A   Clear
11:54 PM 64.8 °F 53.8 °F 68% 29.97 in 10.0 mi SSE 9.2 mph - N/A   Clear